This is the latest recevied weather packets stored in our database for station/object ac2ev. If no packets are shown the sender has not sent any weather packets the latest 10 day(s).
| Time | Temp. | Humidity | Pressure | Rain* | Wind** | Luminosity | Snow |
|---|---|---|---|---|---|---|---|
| 1777507312 | 7.78° C | 92% | 1006.1 hPa | 0.25 mm | - | - | - |
| 1777506992 | 7.78° C | 92% | 1006.4 hPa | 0.51 mm | - | - | - |
| 1777506712 | 7.78° C | 92% | 1006.3 hPa | 0.51 mm | - | - | - |
| 1777506392 | 7.78° C | 92% | 1006.4 hPa | 0.51 mm | - | - | - |
| 1777506091 | 7.78° C | 92% | 1006.8 hPa | 0.76 mm | - | - | - |
| 1777505792 | 7.78° C | 92% | 1006.6 hPa | 1.02 mm | - | - | - |
| 1777505491 | 8.33° C | 92% | 1006.3 hPa | 1.27 mm | - | - | - |
| 1777505192 | 8.33° C | 92% | 1006.3 hPa | 1.27 mm | - | - | - |
| 1777504891 | 8.33° C | 92% | 1006.5 hPa | 1.52 mm | - | - | - |
| 1777504592 | 8.33° C | 92% | 1006.3 hPa | 1.52 mm | - | - | - |
| 1777504290 | 8.33° C | 92% | 1005.9 hPa | 1.27 mm | - | - | - |
| 1777503991 | 8.33° C | 92% | 1006.5 hPa | 1.52 mm | - | - | - |
| 1777503691 | 8.33° C | 92% | 1006.7 hPa | 1.78 mm | - | - | - |
| 1777503392 | 8.33° C | 92% | 1006.6 hPa | 2.03 mm | - | - | - |
| 1777503113 | 8.33° C | 92% | 1006.6 hPa | 2.29 mm | - | - | - |
| 1777502490 | 8.33° C | 92% | 1006.8 hPa | 2.79 mm | - | - | - |
| 1777502192 | 7.78° C | 92% | 1006.7 hPa | 2.79 mm | - | - | - |
| 1777501890 | 7.78° C | 92% | 1006.8 hPa | 2.79 mm | - | - | - |
| 1777501592 | 7.78° C | 92% | 1006.8 hPa | 3.05 mm | - | - | - |
| 1777501290 | 7.78° C | 92% | 1006.9 hPa | 2.79 mm | - | - | - |
| 1777500992 | 7.78° C | 92% | 1006.7 hPa | 2.79 mm | - | - | - |
| 1777500690 | 7.78° C | 92% | 1006.5 hPa | 3.05 mm | - | - | - |
| 1777500392 | 7.78° C | 92% | 1006.4 hPa | 2.79 mm | - | - | - |
| 1777500093 | 7.78° C | 92% | 1006.7 hPa | 2.54 mm | - | - | - |
| 1777499792 | 7.78° C | 92% | 1006.6 hPa | 2.29 mm | - | - | - |
* Rain latest hour (hover to see other rain measurements)
** Current wind speed in m/s (hover to see current wind gust speed)